Location: Larrial
(48.2758°N, 4.5331°W)
Time: 05:59:15
(UTC+00:00)

KKS-1 - Visible Passes

Search period start: 05 December 2021 00:00
Search period end: 15 December 2021 00:00
Orbit: 637 x 648 km, 98.2° (Epoch: 04 December)

Date Brightness Start Highest point End Pass type
(mag) Time Alt. Az. Time Alt. Az. Time Alt. Az.
06 Dec ? 07:11:06 10° ENE 07:12:39 12° NE 07:14:12 10° NE visible
10 Dec ? 07:11:39 10° ENE 07:13:11 12° NE 07:14:44 10° NE visible
14 Dec ? 07:12:11 10° ENE 07:13:42 12° NE 07:15:15 10° NE visible
